Location: Toruń
(53.0138°N, 18.5984°E)
Time: 12:18:16
(UTC+01:00)

ISS - Visible Passes

Search period start: 24 March 2019 00:00
Search period end: 03 April 2019 01:00
Orbit: 408 x 411 km, 51.6° (Epoch: 24 March)

Date Brightness Start Highest point End Pass type
(mag) Time Alt. Az. Time Alt. Az. Time Alt. Az.
24 Mar -3.0 19:33:27 10° SW 19:36:27 32° SSE 19:37:09 29° SE visible
24 Mar -0.9 21:09:30 10° WSW 21:09:56 13° WSW 21:09:56 13° WSW visible
25 Mar -2.4 18:43:14 10° SSW 18:45:56 24° SSE 18:48:41 10° E visible
25 Mar -3.4 20:18:54 10° WSW 20:21:38 51° SW 20:21:38 51° SW visible
26 Mar -3.5 19:28:20 10° WSW 19:31:34 49° SSE 19:33:13 24° E visible
26 Mar -1.5 21:04:42 10° W 21:05:59 21° W 21:05:59 21° W visible
27 Mar -3.9 20:14:03 10° W 20:17:21 70° S 20:17:27 69° SSE visible
28 Mar -3.8 19:23:24 10° WSW 19:26:41 65° S 19:28:51 19° E visible
28 Mar -2.0 20:59:54 10° W 21:01:37 27° W 21:01:37 27° W visible
29 Mar -3.8 20:09:12 10° W 20:12:30 67° S 20:12:58 57° SE visible
30 Mar -3.8 19:18:30 10° W 19:21:48 71° S 19:24:16 17° E visible
30 Mar -2.2 20:55:04 10° W 20:57:01 29° WSW 20:57:01 29° WSW visible
31 Mar -3.5 21:04:19 10° W 21:07:34 53° SSW 21:08:18 42° SSE visible
01 Apr -3.6 20:13:35 10° W 20:16:52 63° S 20:19:35 14° ESE visible
01 Apr -2.0 21:50:18 10° W 21:52:20 23° SW 21:52:20 23° SW visible
02 Apr -2.8 20:59:27 10° W 21:02:31 35° SSW 21:03:36 27° SSE visible
